Location: Unspecified
(52.4292°N, 19.3359°E)
Time: 07:31:55
(UTC+02:00)

A-11 Canister half - Pass Details

Date: 26 May 2024
Orbit: 1524 x 1683 km, 47.3° (Epoch: 27 April)

Event Time Altitude Azimuth Distance (km) Brightness Sun altitude
Rises 21:18:05 0° 230° (SW) 4,673 11.6 -4.2°
Reaches altitude 10° 21:21:12 10° 225° (SW) 3,701 11.0 -4.6°
Maximum altitude 21:30:01 49° 154° (SSE) 1,944 9.2 -5.5°
Drops below altitude 10° 21:39:05 10° 84° (E) 3,809 10.7 -6.4°
Sets 21:42:21 0° 79° (E) 4,819 11.3 -6.8°
